Home > Weather > Korschenbroich > Past weeks

Flag for Germany Past Weather in Korschenbroich, North Rhine-Westphalia, Germany — Yesterday and Last 2 Weeks

Now
64 °F

Rain. Fog.


Feels Like: 64 °F
Forecast: 62 / 67 °F
Wind: 5 mph from North

Location: Monchengladbach Airport

Current Time: May 29, 2016 at 5:33:38 PM

Latest Report: May 29, 2016 at 4:50 PM


Visibility: 2 mi

Pressure: 29.71 "Hg

Humidity: 94%

Dew Point: 63 °F

Location of KorschenbroichLocation

Past Weather in Korschenbroich — Graph

°F

Korschenbroich Temperature Yesterday

Maximum temperature yesterday: 75 °F (at 1:50 PM)
Minimum temperature yesterday: 59 °F (at 7:50 AM)
Average temperature yesterday: 70 °F

High & Low Weather Summary for the Past Weeks

 TemperatureHumidityPressure
High75 °F (May 21, 3:20 PM)100% (May 22, 7:20 PM)30.12 "Hg (May 22, 7:20 PM)
Low45 °F (May 15, 7:50 AM)38% (May 14, 5:20 PM)29.68 "Hg (May 18, 6:50 PM)
Average61 °F67%29.94 "Hg
* Reported May 14 4:20 PM — May 29 4:20 PM, Korschenbroich, Weather by CustomWeather, © 2016

Note: Actual official high and low records may vary slightly from our data, if they occured in-between our weather recording intervals... More about our weather records

Advertising

Korschenbroich Weather History for the Previous 24 Hours

Scroll right to see more
 ConditionsComfort  
Time TempWeatherWind HumidityBarometerVisibility
4:20 PM
Sun, May 29
64 °FRain. Fog.5 mph94%29.71 "Hg2 mi
3:50 PM64 °FRain showers. Partly cloudy.9 mph88%29.71 "Hg2 mi
3:20 PM66 °FLight rain. Passing clouds.9 mph83%29.71 "Hg3 mi
2:50 PM68 °FPassing clouds.6 mph78%29.71 "HgN/A
2:20 PM68 °FLight rain. Passing clouds.8 mph78%29.71 "HgN/A
1:50 PM68 °FScattered clouds.7 mph73%29.71 "HgN/A
1:20 PM70 °FScattered clouds.10 mph69%29.71 "HgN/A
12:50 PM70 °FScattered clouds.9 mph69%29.71 "HgN/A
12:20 PM70 °FPassing clouds.12 mph69%29.71 "HgN/A
11:50 AM72 °FScattered clouds.8 mph65%29.71 "HgN/A
11:20 AM72 °FScattered clouds.10 mph69%29.71 "HgN/A
10:50 AM70 °FPassing clouds.7 mph73%29.71 "HgN/A
10:20 AM68 °FPassing clouds.7 mph73%29.74 "HgN/A
9:50 AM66 °FPassing clouds.9 mph78%29.74 "HgN/A
9:20 AM68 °FSunny.7 mph73%29.71 "Hg10 mi
8:50 AM66 °FSunny.7 mph78%29.74 "Hg10 mi
8:20 AM64 °FSunny.2 mph83%29.74 "Hg10 mi
7:50 AM63 °FSunny.2 mph83%29.74 "Hg10 mi
8:20 PM
Sat, May 28
72 °FClear.5 mph61%29.83 "Hg10 mi
7:50 PM72 °FClear.3 mph61%29.83 "Hg10 mi
6:50 PM73 °FPassing clouds.6 mph57%29.83 "HgN/A
6:20 PM73 °FPassing clouds.6 mph57%29.83 "HgN/A
5:50 PM73 °FPassing clouds.8 mph57%29.83 "HgN/A
5:20 PM75 °FPassing clouds.2 mph47%29.86 "HgN/A
Weather by CustomWeather, © 2016

See weather overviewHow to use our weather pages